iso_date,epoch_date,Year,Hour,Min,DOY,POS_DOY,Lat,Lon,BP,Ts,Ta,has_bp,has_ts,has_ta,BuoyID,Buoy_Type,Buoy_Owner,Logistics,Hemisphere
2017-07-11T18:02:52Z,1499796173,2017,18,3,192.752,192.752,68.4066,-167.1754,1017.7,8.76,-999.0,yes,yes,no,300234063321150,BD2GI,AOML,UNKNOWN,North
2017-07-11T19:00:28Z,1499799629,2017,19,0,192.792,192.792,68.5024,-167.3802,1017.7,8.35,-999.0,yes,yes,no,300234063321150,BD2GI,AOML,UNKNOWN,North
2017-07-11T19:59:31Z,1499803171,2017,20,0,192.833,192.833,68.603,-167.5744,1018.9,8.04,-999.0,yes,yes,no,300234063321150,BD2GI,AOML,UNKNOWN,North
2017-07-11T21:00:00Z,1499806800,2017,21,0,192.875,192.875,68.6168,-167.406,1019.4,8.01,-999.0,yes,yes,no,300234063321150,BD2GI,AOML,UNKNOWN,North
2017-07-11T22:00:28Z,1499810429,2017,22,0,192.917,192.917,68.6154,-167.1436,1019.3,8.11,-999.0,yes,yes,no,300234063321150,BD2GI,AOML,UNKNOWN,North
2017-07-11T22:59:31Z,1499813971,2017,23,0,192.958,192.958,68.616,-166.8932,1019.0,8.38,-999.0,yes,yes,no,300234063321150,BD2GI,AOML,UNKNOWN,North
2017-07-12T00:00:00Z,1499817600,2017,0,0,193.0,193.0,68.6158,-166.6144,1019.1,8.69,-999.0,yes,yes,no,300234063321150,BD2GI,AOML,UNKNOWN,North
2017-07-12T01:00:28Z,1499821229,2017,1,0,193.042,193.042,68.6752,-166.4534,1019.6,9.51,-999.0,yes,yes,no,300234063321150,BD2GI,AOML,UNKNOWN,North
2017-07-12T01:59:31Z,1499824771,2017,2,0,193.083,193.083,68.8106,-166.38,1019.9,10.23,-999.0,yes,yes,no,300234063321150,BD2GI,AOML,UNKNOWN,North
2017-07-12T03:00:00Z,1499828400,2017,3,0,193.125,193.125,68.9136,-166.4212,1020.4,9.34,-999.0,yes,yes,no,300234063321150,BD2GI,AOML,UNKNOWN,North
2017-07-12T04:00:28Z,1499832029,2017,4,0,193.167,193.167,68.9348,-166.723,1020.7,8.96,-999.0,yes,yes,no,300234063321150,BD2GI,AOML,UNKNOWN,North
2017-07-12T04:59:31Z,1499835571,2017,5,0,193.208,193.208,68.9574,-167.015,1020.8,9.41,-999.0,yes,yes,no,300234063321150,BD2GI,AOML,UNKNOWN,North
2017-07-12T06:00:00Z,1499839200,2017,6,0,193.25,193.25,68.9796,-167.2788,1020.7,9.41,-999.0,yes,yes,no,300234063321150,BD2GI,AOML,UNKNOWN,North
2017-07-12T07:00:28Z,1499842829,2017,7,0,193.292,193.292,69.005,-167.5746,1021.4,9.27,-999.0,yes,yes,no,300234063321150,BD2GI,AOML,UNKNOWN,North
2017-07-12T07:59:31Z,1499846371,2017,8,0,193.333,193.333,69.0302,-167.8898,1021.7,8.93,-999.0,yes,yes,no,300234063321150,BD2GI,AOML,UNKNOWN,North
2017-07-12T09:00:00Z,1499850000,2017,9,0,193.375,193.375,69.0182,-168.2524,1021.9,8.72,-999.0,yes,yes,no,300234063321150,BD2GI,AOML,UNKNOWN,North
2017-07-12T10:00:28Z,1499853629,2017,10,0,193.417,193.417,69.007,-168.6188,1022.6,8.52,-999.0,yes,yes,no,300234063321150,BD2GI,AOML,UNKNOWN,North
2017-07-12T10:59:31Z,1499857171,2017,11,0,193.458,193.458,68.9998,-168.934,1022.4,8.31,-999.0,yes,yes,no,300234063321150,BD2GI,AOML,UNKNOWN,North
2017-07-12T12:00:00Z,1499860800,2017,12,0,193.5,193.5,69.002,-168.9428,1022.5,5.75,-999.0,yes,yes,no,300234063321150,BD2GI,AOML,UNKNOWN,North
2017-07-12T13:00:28Z,1499864429,2017,13,0,193.542,193.542,69.005,-168.9518,1022.4,5.75,-999.0,yes,yes,no,300234063321150,BD2GI,AOML,UNKNOWN,North
2017-07-12T13:59:31Z,1499867971,2017,14,0,193.583,193.583,69.0084,-168.9574,1022.4,5.75,-999.0,yes,yes,no,300234063321150,BD2GI,AOML,UNKNOWN,North
2017-07-12T15:00:00Z,1499871600,2017,15,0,193.625,193.625,69.011,-168.9616,1022.5,5.82,-999.0,yes,yes,no,300234063321150,BD2GI,AOML,UNKNOWN,North
2017-07-12T16:00:28Z,1499875229,2017,16,0,193.667,193.667,69.0134,-168.9662,1022.7,5.85,-999.0,yes,yes,no,300234063321150,BD2GI,AOML,UNKNOWN,North
2017-07-12T16:59:31Z,1499878771,2017,17,0,193.708,193.708,69.016,-168.9722,1022.7,5.85,-999.0,yes,yes,no,300234063321150,BD2GI,AOML,UNKNOWN,North
2017-07-12T18:00:00Z,1499882400,2017,18,0,193.75,193.75,69.0184,-168.9778,1023.1,5.89,-999.0,yes,yes,no,300234063321150,BD2GI,AOML,UNKNOWN,North
2017-07-12T19:00:28Z,1499886029,2017,19,0,193.792,193.792,69.0204,-168.9834,1023.0,5.96,-999.0,yes,yes,no,300234063321150,BD2GI,AOML,UNKNOWN,North
2017-07-12T19:59:31Z,1499889571,2017,20,0,193.833,193.833,69.0228,-168.9904,1023.2,6.09,-999.0,yes,yes,no,300234063321150,BD2GI,AOML,UNKNOWN,North
2017-07-12T21:00:00Z,1499893200,2017,21,0,193.875,193.875,69.025,-168.9974,1023.6,6.33,-999.0,yes,yes,no,300234063321150,BD2GI,AOML,UNKNOWN,North
2017-07-12T22:00:28Z,1499896829,2017,22,0,193.917,193.917,69.0274,-169.0042,1023.7,6.23,-999.0,yes,yes,no,300234063321150,BD2GI,AOML,UNKNOWN,North
2017-07-12T22:59:31Z,1499900371,2017,23,0,193.958,193.958,69.0304,-169.0116,1023.7,6.3,-999.0,yes,yes,no,300234063321150,BD2GI,AOML,UNKNOWN,North
2017-07-13T00:00:00Z,1499904000,2017,0,0,194.0,194.0,69.0334,-169.019,1023.5,6.33,-999.0,yes,yes,no,300234063321150,BD2GI,AOML,UNKNOWN,North
2017-07-13T01:00:28Z,1499907629,2017,1,0,194.042,194.042,69.037,-169.0268,1023.8,6.37,-999.0,yes,yes,no,300234063321150,BD2GI,AOML,UNKNOWN,North
2017-07-13T01:59:31Z,1499911171,2017,2,0,194.083,194.083,69.04,-169.0328,1023.7,6.43,-999.0,yes,yes,no,300234063321150,BD2GI,AOML,UNKNOWN,North
2017-07-13T03:00:00Z,1499914800,2017,3,0,194.125,194.125,69.043,-169.0368,1023.8,6.47,-999.0,yes,yes,no,300234063321150,BD2GI,AOML,UNKNOWN,North
2017-07-13T04:00:28Z,1499918429,2017,4,0,194.167,194.167,69.0458,-169.0404,1023.7,6.54,-999.0,yes,yes,no,300234063321150,BD2GI,AOML,UNKNOWN,North
2017-07-13T04:59:31Z,1499921971,2017,5,0,194.208,194.208,69.0488,-169.044,1023.5,6.57,-999.0,yes,yes,no,300234063321150,BD2GI,AOML,UNKNOWN,North
2017-07-13T06:00:00Z,1499925600,2017,6,0,194.25,194.25,69.052,-169.0466,1023.3,6.54,-999.0,yes,yes,no,300234063321150,BD2GI,AOML,UNKNOWN,North
2017-07-13T07:00:28Z,1499929229,2017,7,0,194.292,194.292,69.0548,-169.049,1023.3,6.6,-999.0,yes,yes,no,300234063321150,BD2GI,AOML,UNKNOWN,North
2017-07-13T07:59:31Z,1499932771,2017,8,0,194.333,194.333,69.0574,-169.0522,1023.1,6.6,-999.0,yes,yes,no,300234063321150,BD2GI,AOML,UNKNOWN,North
2017-07-13T09:00:00Z,1499936400,2017,9,0,194.375,194.375,69.0602,-169.0568,1023.0,6.6,-999.0,yes,yes,no,300234063321150,BD2GI,AOML,UNKNOWN,North
2017-07-13T10:00:28Z,1499940029,2017,10,0,194.417,194.417,69.0632,-169.0628,1022.6,6.6,-999.0,yes,yes,no,300234063321150,BD2GI,AOML,UNKNOWN,North
2017-07-13T10:59:31Z,1499943571,2017,11,0,194.458,194.458,69.0666,-169.07,1022.4,6.57,-999.0,yes,yes,no,300234063321150,BD2GI,AOML,UNKNOWN,North
2017-07-13T12:00:00Z,1499947200,2017,12,0,194.5,194.5,69.0702,-169.0772,1021.9,6.54,-999.0,yes,yes,no,300234063321150,BD2GI,AOML,UNKNOWN,North
2017-07-13T13:00:28Z,1499950829,2017,13,0,194.542,194.542,69.074,-169.0842,1021.6,6.5,-999.0,yes,yes,no,300234063321150,BD2GI,AOML,UNKNOWN,North
2017-07-13T13:59:31Z,1499954371,2017,14,0,194.583,194.583,69.0782,-169.0904,1021.2,6.43,-999.0,yes,yes,no,300234063321150,BD2GI,AOML,UNKNOWN,North
2017-07-13T15:00:00Z,1499958000,2017,15,0,194.625,194.625,69.0822,-169.096,1020.8,6.4,-999.0,yes,yes,no,300234063321150,BD2GI,AOML,UNKNOWN,North
2017-07-13T16:00:28Z,1499961629,2017,16,0,194.667,194.667,69.0864,-169.1014,1020.4,6.37,-999.0,yes,yes,no,300234063321150,BD2GI,AOML,UNKNOWN,North
2017-07-13T16:59:31Z,1499965171,2017,17,0,194.708,194.708,69.0904,-169.106,1020.2,6.37,-999.0,yes,yes,no,300234063321150,BD2GI,AOML,UNKNOWN,North
2017-07-13T18:00:00Z,1499968800,2017,18,0,194.75,194.75,69.0938,-169.11,1020.0,6.4,-999.0,yes,yes,no,300234063321150,BD2GI,AOML,UNKNOWN,North
2017-07-13T19:00:28Z,1499972429,2017,19,0,194.792,194.792,69.097,-169.1132,1019.6,6.43,-999.0,yes,yes,no,300234063321150,BD2GI,AOML,UNKNOWN,North
2017-07-13T19:59:31Z,1499975971,2017,20,0,194.833,194.833,69.0996,-169.1166,1019.3,6.47,-999.0,yes,yes,no,300234063321150,BD2GI,AOML,UNKNOWN,North
2017-07-13T21:00:00Z,1499979600,2017,21,0,194.875,194.875,69.1024,-169.1218,1019.2,6.5,-999.0,yes,yes,no,300234063321150,BD2GI,AOML,UNKNOWN,North
2017-07-13T22:00:28Z,1499983229,2017,22,0,194.917,194.917,69.105,-169.1276,1018.9,6.57,-999.0,yes,yes,no,300234063321150,BD2GI,AOML,UNKNOWN,North
2017-07-13T22:59:31Z,1499986771,2017,23,0,194.958,194.958,69.108,-169.1348,1018.7,6.64,-999.0,yes,yes,no,300234063321150,BD2GI,AOML,UNKNOWN,North
2017-07-14T00:00:00Z,1499990400,2017,0,0,195.0,195.0,69.1114,-169.1426,1018.0,6.64,-999.0,yes,yes,no,300234063321150,BD2GI,AOML,UNKNOWN,North
2017-07-14T01:00:28Z,1499994029,2017,1,0,195.042,195.042,69.115,-169.1508,1017.5,6.71,-999.0,yes,yes,no,300234063321150,BD2GI,AOML,UNKNOWN,North
2017-07-14T01:59:31Z,1499997571,2017,2,0,195.083,195.083,69.1184,-169.1582,1017.3,6.78,-999.0,yes,yes,no,300234063321150,BD2GI,AOML,UNKNOWN,North
2017-07-14T03:00:00Z,1500001200,2017,3,0,195.125,195.125,69.122,-169.1654,1017.0,6.91,-999.0,yes,yes,no,300234063321150,BD2GI,AOML,UNKNOWN,North
2017-07-14T04:00:28Z,1500004829,2017,4,0,195.167,195.167,69.1258,-169.1702,1016.5,6.95,-999.0,yes,yes,no,300234063321150,BD2GI,AOML,UNKNOWN,North
2017-07-14T04:59:31Z,1500008371,2017,5,0,195.208,195.208,69.1294,-169.174,1016.0,6.98,-999.0,yes,yes,no,300234063321150,BD2GI,AOML,UNKNOWN,North
2017-07-14T06:00:00Z,1500012000,2017,6,0,195.25,195.25,69.1324,-169.1764,1015.7,7.02,-999.0,yes,yes,no,300234063321150,BD2GI,AOML,UNKNOWN,North
2017-07-14T07:00:28Z,1500015629,2017,7,0,195.292,195.292,69.1348,-169.178,1015.5,7.02,-999.0,yes,yes,no,300234063321150,BD2GI,AOML,UNKNOWN,North
2017-07-14T07:59:31Z,1500019171,2017,8,0,195.333,195.333,69.1374,-169.1806,1015.2,7.02,-999.0,yes,yes,no,300234063321150,BD2GI,AOML,UNKNOWN,North
2017-07-14T09:00:00Z,1500022800,2017,9,0,195.375,195.375,69.1398,-169.1844,1014.8,6.95,-999.0,yes,yes,no,300234063321150,BD2GI,AOML,UNKNOWN,North
2017-07-14T10:00:28Z,1500026429,2017,10,0,195.417,195.417,69.1422,-169.189,1014.5,6.91,-999.0,yes,yes,no,300234063321150,BD2GI,AOML,UNKNOWN,North
2017-07-14T10:59:31Z,1500029971,2017,11,0,195.458,195.458,69.1448,-169.1944,1014.3,6.88,-999.0,yes,yes,no,300234063321150,BD2GI,AOML,UNKNOWN,North
2017-07-14T12:00:00Z,1500033600,2017,12,0,195.5,195.5,69.1478,-169.1998,1013.7,6.88,-999.0,yes,yes,no,300234063321150,BD2GI,AOML,UNKNOWN,North
2017-07-14T13:00:28Z,1500037229,2017,13,0,195.542,195.542,69.1508,-169.2052,1013.3,6.81,-999.0,yes,yes,no,300234063321150,BD2GI,AOML,UNKNOWN,North
2017-07-14T13:59:31Z,1500040771,2017,14,0,195.583,195.583,69.1544,-169.2112,1012.7,6.67,-999.0,yes,yes,no,300234063321150,BD2GI,AOML,UNKNOWN,North
2017-07-14T15:00:00Z,1500044400,2017,15,0,195.625,195.625,69.1586,-169.217,1012.6,6.67,-999.0,yes,yes,no,300234063321150,BD2GI,AOML,UNKNOWN,North
2017-07-14T16:00:28Z,1500048029,2017,16,0,195.667,195.667,69.1626,-169.2208,1012.2,6.64,-999.0,yes,yes,no,300234063321150,BD2GI,AOML,UNKNOWN,North
2017-07-14T16:59:31Z,1500051571,2017,17,0,195.708,195.708,69.1664,-169.2232,1012.0,6.71,-999.0,yes,yes,no,300234063321150,BD2GI,AOML,UNKNOWN,North
2017-07-14T18:00:00Z,1500055200,2017,18,0,195.75,195.75,69.1704,-169.2246,1011.9,6.71,-999.0,yes,yes,no,300234063321150,BD2GI,AOML,UNKNOWN,North
2017-07-14T19:00:28Z,1500058829,2017,19,0,195.792,195.792,69.1744,-169.2248,1011.7,6.71,-999.0,yes,yes,no,300234063321150,BD2GI,AOML,UNKNOWN,North
2017-07-14T19:59:31Z,1500062371,2017,20,0,195.833,195.833,69.1778,-169.2242,1011.4,6.71,-999.0,yes,yes,no,300234063321150,BD2GI,AOML,UNKNOWN,North
2017-07-14T21:00:00Z,1500066000,2017,21,0,195.875,195.875,69.1806,-169.2238,1011.1,6.81,-999.0,yes,yes,no,300234063321150,BD2GI,AOML,UNKNOWN,North
2017-07-14T22:00:28Z,1500069629,2017,22,0,195.917,195.917,69.1838,-169.2248,1011.0,6.91,-999.0,yes,yes,no,300234063321150,BD2GI,AOML,UNKNOWN,North
2017-07-14T22:59:31Z,1500073171,2017,23,0,195.958,195.958,69.1862,-169.2268,1010.9,7.02,-999.0,yes,yes,no,300234063321150,BD2GI,AOML,UNKNOWN,North
2017-07-15T00:00:00Z,1500076800,2017,0,0,196.0,196.0,69.1888,-169.2306,1010.6,7.05,-999.0,yes,yes,no,300234063321150,BD2GI,AOML,UNKNOWN,North
2017-07-15T01:00:28Z,1500080429,2017,1,0,196.042,196.042,69.192,-169.2364,1010.4,7.08,-999.0,yes,yes,no,300234063321150,BD2GI,AOML,UNKNOWN,North
2017-07-15T01:59:31Z,1500083971,2017,2,0,196.083,196.083,69.1956,-169.2416,1010.4,7.15,-999.0,yes,yes,no,300234063321150,BD2GI,AOML,UNKNOWN,North
2017-07-15T03:00:00Z,1500087600,2017,3,0,196.125,196.125,69.1998,-169.2452,1010.3,7.19,-999.0,yes,yes,no,300234063321150,BD2GI,AOML,UNKNOWN,North
2017-07-15T04:00:28Z,1500091229,2017,4,0,196.167,196.167,69.2038,-169.2474,1010.1,7.36,-999.0,yes,yes,no,300234063321150,BD2GI,AOML,UNKNOWN,North
2017-07-15T04:59:31Z,1500094771,2017,5,0,196.208,196.208,69.208,-169.2488,1009.9,7.49,-999.0,yes,yes,no,300234063321150,BD2GI,AOML,UNKNOWN,North
2017-07-15T06:00:00Z,1500098400,2017,6,0,196.25,196.25,69.2116,-169.2486,1009.9,7.43,-999.0,yes,yes,no,300234063321150,BD2GI,AOML,UNKNOWN,North
2017-07-15T07:00:28Z,1500102029,2017,7,0,196.292,196.292,69.2158,-169.2484,1009.8,7.43,-999.0,yes,yes,no,300234063321150,BD2GI,AOML,UNKNOWN,North
2017-07-15T07:59:31Z,1500105571,2017,8,0,196.333,196.333,69.2198,-169.2468,1010.0,7.39,-999.0,yes,yes,no,300234063321150,BD2GI,AOML,UNKNOWN,North
2017-07-15T09:00:00Z,1500109200,2017,9,0,196.375,196.375,69.2234,-169.2442,1009.9,7.46,-999.0,yes,yes,no,300234063321150,BD2GI,AOML,UNKNOWN,North
2017-07-15T10:00:28Z,1500112829,2017,10,0,196.417,196.417,69.2266,-169.2432,1009.8,7.32,-999.0,yes,yes,no,300234063321150,BD2GI,AOML,UNKNOWN,North
2017-07-15T10:59:31Z,1500116371,2017,11,0,196.458,196.458,69.2296,-169.2432,1010.0,7.29,-999.0,yes,yes,no,300234063321150,BD2GI,AOML,UNKNOWN,North
2017-07-15T12:00:00Z,1500120000,2017,12,0,196.5,196.5,69.2322,-169.2442,1010.0,7.19,-999.0,yes,yes,no,300234063321150,BD2GI,AOML,UNKNOWN,North
2017-07-15T13:00:28Z,1500123629,2017,13,0,196.542,196.542,69.2356,-169.2472,1010.0,7.22,-999.0,yes,yes,no,300234063321150,BD2GI,AOML,UNKNOWN,North
2017-07-15T13:59:31Z,1500127171,2017,14,0,196.583,196.583,69.2392,-169.2502,1009.8,7.19,-999.0,yes,yes,no,300234063321150,BD2GI,AOML,UNKNOWN,North
2017-07-15T15:00:00Z,1500130800,2017,15,0,196.625,196.625,69.2428,-169.2526,1010.0,7.22,-999.0,yes,yes,no,300234063321150,BD2GI,AOML,UNKNOWN,North
2017-07-15T16:00:28Z,1500134429,2017,16,0,196.667,196.667,69.2466,-169.2552,1010.4,7.29,-999.0,yes,yes,no,300234063321150,BD2GI,AOML,UNKNOWN,North
2017-07-15T16:59:31Z,1500137971,2017,17,0,196.708,196.708,69.2502,-169.2564,1010.5,7.25,-999.0,yes,yes,no,300234063321150,BD2GI,AOML,UNKNOWN,North
2017-07-15T18:00:00Z,1500141600,2017,18,0,196.75,196.75,69.2546,-169.2572,1010.6,7.25,-999.0,yes,yes,no,300234063321150,BD2GI,AOML,UNKNOWN,North
2017-07-15T19:00:28Z,1500145229,2017,19,0,196.792,196.792,69.2588,-169.2564,1010.8,7.25,-999.0,yes,yes,no,300234063321150,BD2GI,AOML,UNKNOWN,North
2017-07-15T19:59:31Z,1500148771,2017,20,0,196.833,196.833,69.2626,-169.2556,1010.9,7.32,-999.0,yes,yes,no,300234063321150,BD2GI,AOML,UNKNOWN,North
2017-07-15T21:00:00Z,1500152400,2017,21,0,196.875,196.875,69.2664,-169.2544,1010.7,7.32,-999.0,yes,yes,no,300234063321150,BD2GI,AOML,UNKNOWN,North
2017-07-15T22:00:28Z,1500156029,2017,22,0,196.917,196.917,69.2704,-169.253,1010.9,7.43,-999.0,yes,yes,no,300234063321150,BD2GI,AOML,UNKNOWN,North
2017-07-15T22:59:31Z,1500159571,2017,23,0,196.958,196.958,69.2736,-169.2528,1011.3,7.49,-999.0,yes,yes,no,300234063321150,BD2GI,AOML,UNKNOWN,North
2017-07-16T00:00:00Z,1500163200,2017,0,0,197.0,197.0,69.2766,-169.2528,1011.2,7.53,-999.0,yes,yes,no,300234063321150,BD2GI,AOML,UNKNOWN,North
2017-07-16T01:00:28Z,1500166829,2017,1,0,197.042,197.042,69.2796,-169.2546,1011.3,7.53,-999.0,yes,yes,no,300234063321150,BD2GI,AOML,UNKNOWN,North
2017-07-16T01:59:31Z,1500170371,2017,2,0,197.083,197.083,69.283,-169.2564,1011.1,7.49,-999.0,yes,yes,no,300234063321150,BD2GI,AOML,UNKNOWN,North
2017-07-16T03:00:00Z,1500174000,2017,3,0,197.125,197.125,69.2862,-169.2582,1011.1,7.63,-999.0,yes,yes,no,300234063321150,BD2GI,AOML,UNKNOWN,North
2017-07-16T04:00:28Z,1500177629,2017,4,0,197.167,197.167,69.29,-169.2612,1010.8,7.63,-999.0,yes,yes,no,300234063321150,BD2GI,AOML,UNKNOWN,North
2017-07-16T04:59:31Z,1500181171,2017,5,0,197.208,197.208,69.2944,-169.2648,1011.1,7.63,-999.0,yes,yes,no,300234063321150,BD2GI,AOML,UNKNOWN,North
2017-07-16T06:00:00Z,1500184800,2017,6,0,197.25,197.25,69.2994,-169.2678,1011.1,7.56,-999.0,yes,yes,no,300234063321150,BD2GI,AOML,UNKNOWN,North
2017-07-16T07:00:28Z,1500188429,2017,7,0,197.292,197.292,69.3048,-169.2686,1011.1,7.53,-999.0,yes,yes,no,300234063321150,BD2GI,AOML,UNKNOWN,North
2017-07-16T07:59:31Z,1500191971,2017,8,0,197.333,197.333,69.3098,-169.2676,1011.1,7.49,-999.0,yes,yes,no,300234063321150,BD2GI,AOML,UNKNOWN,North
2017-07-16T09:00:00Z,1500195600,2017,9,0,197.375,197.375,69.3144,-169.2656,1011.0,7.46,-999.0,yes,yes,no,300234063321150,BD2GI,AOML,UNKNOWN,North
2017-07-16T10:00:28Z,1500199229,2017,10,0,197.417,197.417,69.318,-169.2632,1011.0,7.46,-999.0,yes,yes,no,300234063321150,BD2GI,AOML,UNKNOWN,North
2017-07-16T10:59:31Z,1500202771,2017,11,0,197.458,197.458,69.3216,-169.2606,1011.1,7.46,-999.0,yes,yes,no,300234063321150,BD2GI,AOML,UNKNOWN,North
2017-07-16T12:00:00Z,1500206400,2017,12,0,197.5,197.5,69.3248,-169.2584,1010.8,7.39,-999.0,yes,yes,no,300234063321150,BD2GI,AOML,UNKNOWN,North
2017-07-16T13:00:28Z,1500210029,2017,13,0,197.542,197.542,69.3274,-169.258,1010.8,7.36,-999.0,yes,yes,no,300234063321150,BD2GI,AOML,UNKNOWN,North
2017-07-16T13:59:31Z,1500213571,2017,14,0,197.583,197.583,69.3304,-169.2588,1010.6,7.49,-999.0,yes,yes,no,300234063321150,BD2GI,AOML,UNKNOWN,North
2017-07-16T15:00:00Z,1500217200,2017,15,0,197.625,197.625,69.3342,-169.2608,1010.7,7.6,-999.0,yes,yes,no,300234063321150,BD2GI,AOML,UNKNOWN,North
2017-07-16T16:00:28Z,1500220829,2017,16,0,197.667,197.667,69.3388,-169.2628,1010.6,7.56,-999.0,yes,yes,no,300234063321150,BD2GI,AOML,UNKNOWN,North
2017-07-16T16:59:31Z,1500224371,2017,17,0,197.708,197.708,69.344,-169.263,1010.8,7.53,-999.0,yes,yes,no,300234063321150,BD2GI,AOML,UNKNOWN,North
2017-07-16T18:00:00Z,1500228000,2017,18,0,197.75,197.75,69.35,-169.2626,1010.8,7.46,-999.0,yes,yes,no,300234063321150,BD2GI,AOML,UNKNOWN,North
2017-07-16T19:00:28Z,1500231629,2017,19,0,197.792,197.792,69.3638,-169.267,1011.0,7.36,-999.0,yes,yes,no,300234063321150,BD2GI,AOML,UNKNOWN,North
2017-07-16T19:59:31Z,1500235171,2017,20,0,197.833,197.833,69.3624,-169.2566,1010.9,7.25,-999.0,yes,yes,no,300234063321150,BD2GI,AOML,UNKNOWN,North
2017-07-16T21:00:00Z,1500238800,2017,21,0,197.875,197.875,69.3676,-169.251,1010.8,7.19,-999.0,yes,yes,no,300234063321150,BD2GI,AOML,UNKNOWN,North
2017-07-16T22:00:28Z,1500242429,2017,22,0,197.917,197.917,69.372,-169.2454,1010.9,7.29,-999.0,yes,yes,no,300234063321150,BD2GI,AOML,UNKNOWN,North
2017-07-16T22:59:31Z,1500245971,2017,23,0,197.958,197.958,69.376,-169.2398,1010.9,7.32,-999.0,yes,yes,no,300234063321150,BD2GI,AOML,UNKNOWN,North
2017-07-17T00:00:00Z,1500249600,2017,0,0,198.0,198.0,69.3794,-169.2368,1010.7,7.36,-999.0,yes,yes,no,300234063321150,BD2GI,AOML,UNKNOWN,North
2017-07-17T01:00:28Z,1500253229,2017,1,0,198.042,198.042,69.3828,-169.2358,1010.6,7.32,-999.0,yes,yes,no,300234063321150,BD2GI,AOML,UNKNOWN,North
2017-07-17T01:59:31Z,1500256771,2017,2,0,198.083,198.083,69.3862,-169.2364,1010.2,7.32,-999.0,yes,yes,no,300234063321150,BD2GI,AOML,UNKNOWN,North
2017-07-17T03:00:00Z,1500260400,2017,3,0,198.125,198.125,69.3898,-169.238,1009.9,7.36,-999.0,yes,yes,no,300234063321150,BD2GI,AOML,UNKNOWN,North
2017-07-17T04:00:28Z,1500264029,2017,4,0,198.167,198.167,69.3938,-169.2398,1009.7,7.39,-999.0,yes,yes,no,300234063321150,BD2GI,AOML,UNKNOWN,North
2017-07-17T04:59:31Z,1500267571,2017,5,0,198.208,198.208,69.3982,-169.2418,1009.6,7.43,-999.0,yes,yes,no,300234063321150,BD2GI,AOML,UNKNOWN,North
2017-07-17T06:00:00Z,1500271200,2017,6,0,198.25,198.25,69.4032,-169.2434,1009.2,7.43,-999.0,yes,yes,no,300234063321150,BD2GI,AOML,UNKNOWN,North
2017-07-17T07:00:28Z,1500274829,2017,7,0,198.292,198.292,69.4086,-169.2436,1008.8,7.43,-999.0,yes,yes,no,300234063321150,BD2GI,AOML,UNKNOWN,North
2017-07-17T07:59:31Z,1500278371,2017,8,0,198.333,198.333,69.414,-169.241,1008.5,7.49,-999.0,yes,yes,no,300234063321150,BD2GI,AOML,UNKNOWN,North
2017-07-17T09:00:00Z,1500282000,2017,9,0,198.375,198.375,69.418,-169.2368,1008.4,7.46,-999.0,yes,yes,no,300234063321150,BD2GI,AOML,UNKNOWN,North
2017-07-17T10:00:28Z,1500285629,2017,10,0,198.417,198.417,69.4222,-169.232,1008.2,7.46,-999.0,yes,yes,no,300234063321150,BD2GI,AOML,UNKNOWN,North
2017-07-17T10:59:31Z,1500289171,2017,11,0,198.458,198.458,69.426,-169.2498,1007.6,7.46,-999.0,yes,yes,no,300234063321150,BD2GI,AOML,UNKNOWN,North
2017-07-17T12:00:00Z,1500292800,2017,12,0,198.5,198.5,69.4282,-169.2244,1007.1,7.46,-999.0,yes,yes,no,300234063321150,BD2GI,AOML,UNKNOWN,North
2017-07-17T13:00:28Z,1500296429,2017,13,0,198.542,198.542,69.4308,-169.2234,1006.4,7.46,-999.0,yes,yes,no,300234063321150,BD2GI,AOML,UNKNOWN,North
2017-07-17T13:59:31Z,1500299971,2017,14,0,198.583,198.583,69.4338,-169.2236,1005.5,7.46,-999.0,yes,yes,no,300234063321150,BD2GI,AOML,UNKNOWN,North
2017-07-17T15:00:00Z,1500303600,2017,15,0,198.625,198.625,69.4368,-169.2244,1004.6,7.49,-999.0,yes,yes,no,300234063321150,BD2GI,AOML,UNKNOWN,North
2017-07-17T16:00:28Z,1500307229,2017,16,0,198.667,198.667,69.441,-169.2266,1004.0,7.53,-999.0,yes,yes,no,300234063321150,BD2GI,AOML,UNKNOWN,North
2017-07-17T16:59:31Z,1500310771,2017,17,0,198.708,198.708,69.4474,-169.2284,1003.4,7.6,-999.0,yes,yes,no,300234063321150,BD2GI,AOML,UNKNOWN,North
2017-07-17T18:00:00Z,1500314400,2017,18,0,198.75,198.75,69.4508,-169.2272,1002.8,7.77,-999.0,yes,yes,no,300234063321150,BD2GI,AOML,UNKNOWN,North
2017-07-17T19:00:28Z,1500318029,2017,19,0,198.792,198.792,69.4564,-169.2254,1002.3,7.87,-999.0,yes,yes,no,300234063321150,BD2GI,AOML,UNKNOWN,North
2017-07-17T19:59:31Z,1500321571,2017,20,0,198.833,198.833,69.4614,-169.2212,1002.1,7.84,-999.0,yes,yes,no,300234063321150,BD2GI,AOML,UNKNOWN,North
2017-07-17T21:00:00Z,1500325200,2017,21,0,198.875,198.875,69.4662,-169.2162,1002.1,7.94,-999.0,yes,yes,no,300234063321150,BD2GI,AOML,UNKNOWN,North
2017-07-17T22:00:28Z,1500328829,2017,22,0,198.917,198.917,69.4706,-169.2114,1002.4,7.87,-999.0,yes,yes,no,300234063321150,BD2GI,AOML,UNKNOWN,North
2017-07-17T22:59:31Z,1500332371,2017,23,0,198.958,198.958,69.4746,-169.2058,1002.7,7.8,-999.0,yes,yes,no,300234063321150,BD2GI,AOML,UNKNOWN,North
2017-07-18T00:00:00Z,1500336000,2017,0,0,199.0,199.0,69.478,-169.2014,1003.0,8.55,-999.0,yes,yes,no,300234063321150,BD2GI,AOML,UNKNOWN,North
2017-07-18T01:00:28Z,1500339629,2017,1,0,199.042,199.042,69.4818,-169.1976,1003.2,8.69,-999.0,yes,yes,no,300234063321150,BD2GI,AOML,UNKNOWN,North
2017-07-18T01:59:31Z,1500343171,2017,2,0,199.083,199.083,69.4854,-169.1956,1003.5,8.66,-999.0,yes,yes,no,300234063321150,BD2GI,AOML,UNKNOWN,North
2017-07-18T03:00:00Z,1500346800,2017,3,0,199.125,199.125,69.4896,-169.193,1003.6,8.69,-999.0,yes,yes,no,300234063321150,BD2GI,AOML,UNKNOWN,North
2017-07-18T04:00:28Z,1500350429,2017,4,0,199.167,199.167,69.4938,-169.1906,1003.8,8.59,-999.0,yes,yes,no,300234063321150,BD2GI,AOML,UNKNOWN,North
2017-07-18T04:59:31Z,1500353971,2017,5,0,199.208,199.208,69.498,-169.1874,1003.7,8.55,-999.0,yes,yes,no,300234063321150,BD2GI,AOML,UNKNOWN,North
2017-07-18T06:00:00Z,1500357600,2017,6,0,199.25,199.25,69.5024,-169.1836,1004.1,8.45,-999.0,yes,yes,no,300234063321150,BD2GI,AOML,UNKNOWN,North
2017-07-18T07:00:28Z,1500361229,2017,7,0,199.292,199.292,69.5068,-169.1794,1004.2,8.42,-999.0,yes,yes,no,300234063321150,BD2GI,AOML,UNKNOWN,North
2017-07-18T07:59:31Z,1500364771,2017,8,0,199.333,199.333,69.5116,-169.1746,1004.5,8.35,-999.0,yes,yes,no,300234063321150,BD2GI,AOML,UNKNOWN,North
2017-07-18T09:00:00Z,1500368400,2017,9,0,199.375,199.375,69.5164,-169.168,1004.6,8.35,-999.0,yes,yes,no,300234063321150,BD2GI,AOML,UNKNOWN,North
2017-07-18T10:00:28Z,1500372029,2017,10,0,199.417,199.417,69.521,-169.1604,1004.8,8.31,-999.0,yes,yes,no,300234063321150,BD2GI,AOML,UNKNOWN,North
2017-07-18T10:59:31Z,1500375571,2017,11,0,199.458,199.458,69.525,-169.1524,1004.8,8.31,-999.0,yes,yes,no,300234063321150,BD2GI,AOML,UNKNOWN,North
2017-07-18T12:00:00Z,1500379200,2017,12,0,199.5,199.5,69.5288,-169.1444,1004.6,8.28,-999.0,yes,yes,no,300234063321150,BD2GI,AOML,UNKNOWN,North